Other Surface Observations
Issued by NWS Upton, NY

Home | Current Version | Previous Version | Text Only | Print | Product List | Glossary On
Versions: 1 2 3 4 5 6 7 8 9 10 11 12 13 14 15 16 17 18 19 20 21 22 23 24 25 26 27 28 29 30 31 32 33 34 35 36 37 38 39 40 41 42 43 44 45 46 47 48 49 50
000
SXUS51 KOKX 181257
OSOOKX
New York City Metropolitan Area Weather Roundup
National Weather Service New York NY
800 AM EST MON DEC 18 2017

CITY           SKY/WX    TMP DP  RH WIND       PRES   REMARKS
Central Park   CLOUDY    36  32  85 NE3       30.14F
LaGuardia Arpt CLOUDY    37  31  78 NE8       30.12F WCI  31
Kennedy Intl   CLOUDY    36  34  92 NE8       30.12F WCI  30
Newark Liberty CLOUDY    34  30  85 N8        30.12F WCI  27
Teterboro Arpt CLOUDY    34  27  75 N6        30.12F WCI  29
Bronx Bot Gard   N/A     34  30  86 CALM      30.13F
Bronx Lehman C   N/A     34  32  93 E3          N/A
Queens College   N/A     34  32  93 NE5         N/A  WCI  30
Breezy Point     N/A     36 N/A N/A NE7G14      N/A  WCI  30
Brooklyn Coll    N/A     37  32  81 N3          N/A
Staten Island    N/A     34  32  93 N3          N/A

>>>>>>>>>>>>>>>>>>>>>>>>>>>>>>>>> KEY <<<<<<<<<<<<<<<<<<<<<<<<<<<<<<<
> SKY/WX - Sky Condition/Present    : R : WCI - Wind Chill Index    <
>          Weather                  : E : VSB - Visibility in Miles <
> TMP    - Temperature in Deg F     : M : HX  - Heat Index          <
> DP     - Dew Point Temperature    : A : TC  - Temperature in      <
> RH     - Relative Humidity        : R :       Celsius             <
> WIND   - Direction/Speed (mph)    : K : VRB - Variable Wind Dir   <
> PRES   - Pressure (in Hg)         : S :                           <
>>>>>>>>>>>>>>>>>>>>>>>>>>>>>>>>> KEY <<<<<<<<<<<<<<<<<<<<<<<<<<<<<<<




USA.gov is the U.S. government's official web portal to all federal, state and local government web resources and services.